[[{"header":{"parameterUnit":"m.s-1","parameterCategory":1,"la1":30.2991,"la2":30.254,"lo1":-89.0895,"lo2":-89.0444,"dy":0.0017,"dx":0.0017,"nx":28,"ny":28,"refTime":"2024-09-29T03:00:00:Z","depth":0,"parameterNumber":2,"parameterNumberName":"U-component_of_WINDS"},"data":[0,0,0,0,0,0,0,0,0,0,0,0,0,0,0,0,0,0,0,0,0,0,0,0,0,0,0,0,0,0,0,0,0,0,0,0,0,0,0,0,0,0,0,0,0,0,0,0,0,0,0,0,0,0,0,0,0,0,1.3774,1.3774,0,1.3818,1.3819,1.3819,1.3847,1.3847,1.3847,1.3847,1.3894,1.3895,1.3897,0,0,0,0,0,0,0,0,0,0,0,0,0,1.3714,1.3715,1.3774,1.3774,1.3775,1.3818,1.3819,1.3819,1.3847,1.3847,1.3847,1.3847,1.3894,1.3895,1.3897,0,0,0,0,0,0,0,0,0,0,0,0,0,1.3747,1.3715,1.3773,1.3793,1.3796,1.3818,1.3819,1.382,1.3847,1.3847,1.3847,1.3847,1.3894,1.3895,1.3897,1.3903,0,0,1.3902,1.3903,0,0,0,0,0,0,0,0,1.3745,1.3749,1.379,1.3792,1.3795,1.3827,1.3815,1.3848,1.3847,1.3827,1.3847,1.3847,1.3872,1.3875,1.3883,1.3906,1.3908,1.3902,1.3903,1.3904,1.3904,0,0,0,0,0,0,0,1.3743,1.3748,1.3791,1.3791,1.3793,1.3801,1.3806,1.3821,1.3848,1.3829,1.3831,1.3836,1.3873,1.3882,1.3885,1.3908,1.3902,1.3904,1.3905,1.3905,1.3939,1.3939,0,0,0,0,0,0,1.3737,1.3746,1.379,1.3793,1.377,1.3802,1.3807,1.3816,1.3848,1.3853,1.3836,1.3837,1.3879,1.3883,1.3886,1.3896,1.3904,1.3906,1.3907,1.3939,1.3939,1.3939,0,0,0,0,0,0,1.3736,1.3741,1.3788,1.377,1.3776,1.3803,1.3813,1.3817,1.3826,1.3853,1.3858,1.3839,1.3879,1.3884,1.3899,1.3898,1.3906,1.3908,1.3939,1.3939,1.3939,1.3916,0,0,0,0,0,0,1.3734,1.374,1.3742,1.377,1.3777,1.3799,1.3813,1.3818,1.3828,1.3831,1.3858,1.3862,1.388,1.3896,1.3901,1.3901,1.3909,1.394,1.3939,1.3939,1.3917,1.3915,1.3914,0,0,0,0,0,1.3732,1.3734,1.3742,1.3747,1.378,1.3799,1.3803,1.3823,1.3828,1.3831,1.3849,1.3861,1.3898,1.3898,1.3903,1.3903,1.394,1.3939,1.3939,1.3918,1.3915,1.3914,0,0,0,0,0,0,1.3706,1.3738,1.3747,1.3758,1.3776,1.3803,1.3807,1.3819,1.3836,1.3837,1.3861,1.3867,1.388,1.3894,1.3892,1.3912,1.392,1.3921,1.3902,1.39,1.3899,1.3895,1.3911,0,0,0,0,0,1.3701,1.3714,1.3741,1.3748,1.3757,1.378,1.3789,1.3803,1.3822,1.3829,1.3848,1.3867,1.3883,1.3893,1.3909,1.392,1.3926,1.3923,1.3921,1.3919,1.392,1.3927,1.3926,1.3938,1.3938,1.3938,0,0,1.3692,1.3711,1.3717,1.3744,1.3759,1.3771,1.3786,1.3799,1.3809,1.3832,1.3847,1.3861,1.3884,1.3897,1.3904,1.3909,1.3918,1.3919,1.3918,1.3919,1.3927,1.3926,1.3925,1.3938,1.3938,1.3938,0,0,1.3682,1.3697,1.3705,1.372,1.3743,1.3759,1.3761,1.3788,1.3798,1.3814,1.3832,1.3844,1.3871,1.3886,1.3898,1.3895,1.3908,1.39,1.389,1.3898,1.3897,1.3896,1.3895,1.3895,1.39,1.39,1.39,0,1.3668,1.3687,1.3708,1.372,1.3731,1.3753,1.3761,1.3775,1.3802,1.381,1.3815,1.3849,1.3866,1.3883,1.3883,1.3891,1.3895,1.3896,1.3895,1.3894,1.3894,1.3894,1.3893,1.3899,1.3899,1.3899,1.3899,0,1.3668,1.3682,1.3685,1.3711,1.3723,1.3733,1.3756,1.3766,1.3779,1.3795,1.3812,1.3833,1.3853,1.3859,1.3872,1.3879,1.3881,1.389,1.3899,1.3891,1.3891,1.3891,1.3897,1.3898,1.3898,1.3898,0,0,1.3641,1.3679,1.368,1.3692,1.372,1.3731,1.3743,1.3763,1.3771,1.379,1.3801,1.3823,1.3833,1.3846,1.3861,1.3867,1.3864,1.3876,1.3877,1.3873,1.3873,1.3866,1.3865,1.3873,1.3873,1.3873,1.3872,0,1.3634,1.3656,1.3676,1.369,1.3703,1.3725,1.3736,1.3755,1.377,1.3784,1.3802,1.3818,1.3829,1.3837,1.3844,1.3863,1.3865,1.3863,1.3884,1.3884,1.3877,1.3865,1.3857,1.3854,1.3872,1.3872,1.3872,0,1.3628,1.3646,1.3662,1.369,1.3696,1.3705,1.3726,1.3739,1.3761,1.3772,1.3787,1.3803,1.3818,1.3826,1.3847,1.3846,1.3856,1.3866,1.3867,1.3869,1.3877,1.3866,1.3853,1.3853,1.3872,1.3872,1.3872,0,1.3606,1.3634,1.3648,1.3658,1.369,1.3696,1.371,1.3733,1.3744,1.3763,1.3771,1.3791,1.3802,1.3818,1.384,1.3844,1.3858,1.3868,1.3868,1.3868,1.3869,1.3869,1.3857,1.3877,1.3877,1.3877,1.3877,0,1.3596,1.3605,1.3638,1.3646,1.3657,1.3682,1.3692,1.3708,1.3728,1.374,1.3761,1.3772,1.3801,1.3816,1.3833,1.3848,1.3853,1.3862,1.3867,1.386,1.3859,1.3866,1.3867,1.3877,1.3877,1.3877,1.3877,0,1.3573,1.3595,1.3611,1.3642,1.365,1.3656,1.3682,1.3692,1.3709,1.3725,1.373,1.3758,1.3776,1.38,1.3826,1.3838,1.3851,1.3858,1.3843,1.3845,1.3844,1.3844,1.3836,1.3836,1.3856,1.3856,1.3856,0,1.3564,1.3571,1.3603,1.3612,1.3626,1.3641,1.3653,1.3678,1.369,1.3717,1.3723,1.3743,1.3761,1.379,1.3813,1.3833,1.3841,1.3837,1.3844,1.3837,1.384,1.3839,1.384,1.3834,1.3834,1.3834,1.3834,0,1.3546,1.3558,1.3574,1.3595,1.3609,1.3626,1.3645,1.3652,1.3681,1.3693,1.3713,1.3726,1.3754,1.3774,1.3798,1.3813,1.3828,1.3832,1.3833,1.3825,1.3816,1.3821,1.3837,1.3831,1.3831,1.3832,1.3832,1.3832,1.3529,1.3537,1.3561,1.3579,1.3596,1.3613,1.3624,1.3643,1.366,1.3684,1.3698,1.3717,1.3741,1.3775,1.3789,1.3805,1.3811,1.3812,1.3813,1.3812,1.381,1.3815,1.381,1.381,1.381,1.381,1.381,0,1.3512,1.3529,1.3546,1.3571,1.3586,1.36,1.3622,1.3633,1.365,1.367,1.3688,1.3711,1.3731,1.3756,1.3778,1.3786,1.3794,1.3791,1.379,1.3793,1.3804,1.3801,1.3784,1.3784,1.3784,1.3784,1.3784,1.3784,1.3505,1.3519,1.3534,1.3557,1.3575,1.3593,1.3605,1.3621,1.3638,1.3663,1.368,1.3696,1.3719,1.3744,1.3763,1.377,1.3777,1.3772,1.3781,1.379,1.3793,1.3795,1.3792,1.3774,1.3774,1.3769,1.3769,1.3769]},{"header":{"parameterUnit":"m.s-1","parameterCategory":1,"la1":30.2991,"la2":30.254,"lo1":-89.0895,"lo2":-89.0444,"dy":0.0017,"dx":0.0017,"nx":28,"ny":28,"refTime":"2024-09-29T03:00:00:Z","depth":0,"parameterNumber":3,"parameterNumberName":"V-component_of_WINDS"},"data":[0,0,0,0,0,0,0,0,0,0,0,0,0,0,0,0,0,0,0,0,0,0,0,0,0,0,0,0,0,0,0,0,0,0,0,0,0,0,0,0,0,0,0,0,0,0,0,0,0,0,0,0,0,0,0,0,0,0,2.659,2.6591,0,2.6657,2.6657,2.6658,2.6701,2.6701,2.6701,2.6702,2.6766,2.6767,2.6769,0,0,0,0,0,0,0,0,0,0,0,0,0,2.6495,2.6496,2.659,2.6591,2.6592,2.6657,2.6658,2.6658,2.6701,2.6701,2.6701,2.6702,2.6765,2.6767,2.6769,0,0,0,0,0,0,0,0,0,0,0,0,0,2.6546,2.6497,2.659,2.6621,2.6624,2.6656,2.6658,2.6659,2.6701,2.6701,2.6701,2.6702,2.6765,2.6767,2.6769,2.6775,0,0,2.6776,2.6777,0,0,0,0,0,0,0,0,2.6543,2.655,2.6616,2.6619,2.6623,2.6671,2.6647,2.6697,2.6701,2.6672,2.6702,2.6702,2.6734,2.6738,2.675,2.6778,2.678,2.6776,2.6777,2.6778,2.6779,0,0,0,0,0,0,0,2.654,2.6547,2.6617,2.6616,2.6621,2.663,2.6637,2.6657,2.6699,2.6674,2.6677,2.6685,2.6736,2.6748,2.6752,2.6781,2.6776,2.6778,2.6779,2.678,2.6814,2.6813,0,0,0,0,0,0,2.6532,2.6544,2.6614,2.6619,2.6583,2.6631,2.664,2.6655,2.6699,2.6707,2.6684,2.6687,2.6744,2.6749,2.6754,2.6762,2.6778,2.678,2.6781,2.6814,2.6814,2.6813,0,0,0,0,0,0,2.653,2.6538,2.6612,2.6582,2.6592,2.6632,2.6649,2.6656,2.6668,2.6707,2.6714,2.6689,2.6744,2.6751,2.6769,2.6765,2.6781,2.6783,2.6815,2.6814,2.6813,2.6779,0,0,0,0,0,0,2.6527,2.6537,2.6541,2.6582,2.6594,2.6627,2.6649,2.6657,2.6672,2.6676,2.6714,2.672,2.6745,2.6765,2.6771,2.6768,2.6785,2.6815,2.6814,2.6814,2.678,2.6777,2.6774,0,0,0,0,0,2.6523,2.6528,2.6541,2.6549,2.66,2.6627,2.6633,2.6663,2.6672,2.6675,2.67,2.6719,2.6764,2.6767,2.6774,2.6771,2.6816,2.6815,2.6814,2.6782,2.6778,2.6774,0,0,0,0,0,0,2.6485,2.6534,2.6549,2.6568,2.6593,2.6634,2.6639,2.6658,2.668,2.6682,2.6716,2.6724,2.6738,2.6757,2.6758,2.6777,2.6792,2.6792,2.6765,2.6762,2.6759,2.6754,2.6787,0,0,0,0,0,2.6479,2.6498,2.6539,2.6552,2.6564,2.6599,2.6612,2.6632,2.6659,2.667,2.6696,2.672,2.6739,2.6752,2.6772,2.6783,2.679,2.6784,2.6781,2.6778,2.6778,2.6783,2.678,2.681,2.681,2.681,0,0,2.6466,2.6495,2.6506,2.6545,2.6567,2.6584,2.6608,2.6626,2.6638,2.6672,2.6691,2.671,2.6739,2.6753,2.676,2.6769,2.6771,2.6777,2.6775,2.6776,2.6782,2.6779,2.6776,2.681,2.681,2.681,0,0,2.6452,2.6477,2.6489,2.651,2.6543,2.6566,2.6568,2.6606,2.6621,2.664,2.6665,2.6679,2.6713,2.6732,2.6746,2.6735,2.6753,2.6741,2.6724,2.6729,2.6726,2.6724,2.6719,2.6717,2.6741,2.674,2.674,0,2.6432,2.6461,2.6493,2.6509,2.6524,2.6556,2.6567,2.6585,2.6622,2.6631,2.664,2.6681,2.6703,2.6721,2.6718,2.6729,2.6731,2.6737,2.6724,2.6723,2.6721,2.6716,2.6714,2.6739,2.6739,2.6739,2.6739,0,2.6434,2.6453,2.6458,2.6494,2.651,2.6523,2.6555,2.6567,2.6585,2.6606,2.6623,2.665,2.6675,2.6681,2.6699,2.67,2.6704,2.6718,2.6733,2.6716,2.6712,2.6711,2.6736,2.6737,2.6737,2.6738,0,0,2.64,2.6451,2.6452,2.6467,2.6504,2.6519,2.6532,2.6557,2.6566,2.659,2.66,2.6627,2.6639,2.6655,2.6675,2.6678,2.6666,2.6692,2.6693,2.6685,2.6667,2.6656,2.6653,2.6678,2.6678,2.6677,2.6664,0,2.6391,2.6418,2.6445,2.6462,2.6479,2.6507,2.6518,2.6541,2.656,2.6576,2.6597,2.6614,2.663,2.6639,2.6644,2.6666,2.6663,2.6668,2.6686,2.6687,2.6678,2.6651,2.664,2.6626,2.6663,2.6662,2.6662,0,2.6385,2.6407,2.6425,2.6458,2.6466,2.6476,2.65,2.6514,2.6539,2.6553,2.6569,2.659,2.6603,2.6616,2.6633,2.6636,2.6645,2.6656,2.6657,2.6659,2.6673,2.6652,2.6623,2.662,2.666,2.6661,2.6661,0,2.6356,2.6391,2.6406,2.6418,2.6457,2.6463,2.6479,2.6504,2.6517,2.6537,2.6545,2.6566,2.6577,2.6592,2.6617,2.6624,2.663,2.6646,2.664,2.664,2.6641,2.664,2.6611,2.6647,2.6647,2.6647,2.6647,0,2.6343,2.6353,2.6393,2.6402,2.6413,2.6443,2.6452,2.647,2.6492,2.6504,2.6529,2.6539,2.6572,2.6585,2.6604,2.6614,2.6619,2.6629,2.6634,2.6627,2.6625,2.6633,2.6634,2.6647,2.6647,2.6647,2.6647,0,2.6314,2.6342,2.6359,2.6394,2.6403,2.6409,2.6438,2.6446,2.6466,2.648,2.6485,2.6516,2.6532,2.6559,2.6583,2.6595,2.6602,2.661,2.6593,2.6596,2.6589,2.6588,2.6563,2.656,2.6599,2.6598,2.6598,0,2.6304,2.6312,2.6347,2.6357,2.6372,2.6388,2.64,2.6429,2.644,2.6468,2.6472,2.6491,2.6507,2.6531,2.6555,2.6573,2.6582,2.6571,2.6584,2.6576,2.658,2.6579,2.6579,2.6568,2.6568,2.6567,2.6567,0,2.6283,2.6295,2.6313,2.6334,2.6348,2.6366,2.6385,2.6391,2.6423,2.6435,2.6452,2.6464,2.6488,2.6505,2.6526,2.6541,2.6558,2.6562,2.6562,2.6554,2.6543,2.6548,2.6584,2.6563,2.6563,2.6564,2.6564,2.6564,2.6263,2.627,2.6295,2.6313,2.633,2.6346,2.6355,2.6375,2.6391,2.6413,2.6428,2.6443,2.6465,2.6495,2.6508,2.6519,2.6527,2.6527,2.6527,2.6526,2.6522,2.6542,2.6523,2.6524,2.6524,2.6524,2.6524,0,2.6242,2.6258,2.6274,2.63,2.6313,2.6328,2.6349,2.6359,2.6372,2.6391,2.6406,2.6424,2.644,2.6464,2.6481,2.6485,2.6494,2.6489,2.6489,2.6491,2.6515,2.6513,2.6482,2.6482,2.6482,2.6482,2.6482,2.6482,2.6232,2.6245,2.6259,2.6279,2.6296,2.6312,2.6322,2.6336,2.6351,2.6371,2.6384,2.6399,2.6419,2.6438,2.6452,2.6459,2.6463,2.6456,2.6464,2.6486,2.649,2.6494,2.6492,2.6457,2.6457,2.644,2.6439,2.6439]}]]